STARLINK-11532, 62596

Orbit data source: Space-Track

STARLINK-11532, 62596 is a payload satellite owned by SpaceX/Seattle (US) in LEO that was launched on Mon, 13 Jan 2025 UTC via an FALCON 9 launch vehicle from the Air Force Eastern Test Range (AFETR). Payload-class satellites include a variety of spacecraft equipped with specific instruments for various scientific and technological missions. These include communications satellites like Starlink; space stations such as the ISS; scientific satellites like the Hubble; Earth observation satellites from companies like Planet Labs, Umbra, and HawkEye 360; GPS; miniature CubeSats for education and research; and military/defense satellites.

Loading next visibility...
Identifier
62596, 2025-008K
Orbit
LEO
Last TLE update
12 hours ago
Origin
Manufacturer
SpaceX/Seattle
Mission
Operational Commercial Communications
Bus & Motor
STARLINK V2M, Unknown motor
Mass
730 kg wet, ~700 kg dry
Launch date (UTC)
2025-01-13 (6 months ago)
Launch vehicle
FALCON 9
Launch site
Air Force Eastern Test Range (AFETR)
Object type
Payload
Rocket body
Debris
Shape & HBR
Box + 2 Pan, 29 m
Radar Cross Section
36.964 m², Large (>1 m²)

Expand to show TLE details & history

TLE from 12 hours ago
0 STARLINK-11532
1 62596U 25008K   25182.75651773  .00288473  00000-0  13970-2 0  9996
2 62596  42.9922 195.5849 0000778  43.1283 316.9649 15.80912417 27681
Epoch: 2025-07-01T18:09Z
TLE epoch observation values (Epoch: 2025-07-01T18:09:23.131Z)
Latitude
-0.00004°
Longitude
3.19107°
Altitude
327.247 km
Speed
7.714 km/s
True Right ascension
13h 02m 20s
True Declination
0° 00' 00"
Sunlit
Object was in daylight at epoch
Visualization orbit readout
Latitude
-26.27443°
Longitude
-147.97948°
Altitude
334.151 km
Speed
7.708 km/s
Apparent Right ascension
04h 02m 45s
Apparent Declination
-34° 05' 24"
Sunlit
Object is in daylight
Visualization observer readout
Local Sidereal Time
17:23:22
Azimuth
76.412° E
Elevation
-72.929°
Doppler factor
1
Orbital elements
Apogee altitude
330.372 km
Perigee altitude
329.329 km
Semi-major axis
6,707.988 km
Eccentricity
0.00008
Inclination
42.9922°
RAAN
195.5849°
Arg. of periapsis
43.1283°
True anomaly
Unknown
Mean anomaly
316.9649°
Eccentric anomaly
Unknown
Mean motion
3.95052 °/min
Orbital period
91.13 mins
BSTAR
0.001397
Loading maneuver chart data...
Loading SW <> Apogee altitude chart data...
Loading historical data...
Loading historical data...
Loading historical data...
Loading historical data...
Loading historical data...
Loading historical data...
Loading historical data...

STARLINK-11532 Visibility forecast

Observer location: undefined°, undefined°

Span
Click to sort rows by Start time (UTC) header in descending order
Start Az.
Max El. time (UTC)
Max El. Az.
Max El.
End time (UTC)
End Az.
5 mins2025-07-02 06:35:45.979Z280.364° WNW2025-07-02 06:38:45.979Z20.062° NNE32.741°2025-07-02 06:40:45.979Z67.255° ENE
4 mins2025-07-02 08:12:45.979Z302.159° NW2025-07-02 08:13:45.979Z339.515° N38.09°2025-07-02 08:16:45.979Z92.465° ESE
4 mins2025-07-03 05:18:45.979Z270.066° WNW2025-07-03 05:19:45.979Z303.142° NW40.08°2025-07-03 05:22:45.979Z68.922° E
|